星链-31082 (STARLINK-31082 )

导读 | 星芒AI

STARLINK-31082 是 SpaceX Starlink 卫星互联网项目中的第 31082 颗卫星,属于低轨通信卫星群的一部分。该卫星旨在为全球用户提供高速、低延迟的互联网服务,尤其覆盖传统网络难以到达的偏远地区。它采用先进推进系统和激光通信技术,提升网络效率与稳定性。作为 Starlink 计划的一部分,该卫星有助于构建更完善的全球宽带网络体系。

基本信息
目录编号:
58606
目录名称:
STARLINK-31082
国际标识:
2023-200T
轨道中心:
EARTH
卫星名称:
星链-31082
卫星全名:
星链-31082 (STARLINK-31082 )
卫星状态:
在轨 (已飞行682 天)
发射日期:
2023-12-19 UTC
国别 :
美国 (US)
星等 :
--
轨道信息
数据来源 国际轨道数据
星历时间: 2025-10-31T07:29:51+0800
20小时前
查看轨道信息
半长轴: 6937.244km
偏心率: 0.0000858
轨道倾角: 43.003°
近地点辐角 271.985°
升交点赤经 154.961°
平近点角 88.090°
近地点: 558.513km
远地点: 559.705km
周期: 95.839分钟
每日圈数: 15.025273
详细信息
固有亮度:
5
最大亮度:
0.3
卫星平台:
Starlink v2.0 mini
覆盖范围:
全球
运营商:
太空探索技术公司
运营商所在国:
美国
制造商(研发单位):
太空探索技术公司
制造商所在国:
美国
使用方式:
暂无
卫星简介
星链(Starlink)计划是由太空探索技术公司(SpaceX)提出的一个巨型低轨卫星互联网星座项目,计划在2019年至2024年间在太空搭建由约1.2万颗卫星组成的“星链”网络,其中1584颗将部署在地球上空550千米处的近地轨道,并从2020年开始工作。该卫星仍在工作。
2D轨道图
3D轨道图
轨道高度分析图
轨道倾角分析图
轨道综合分析图
查看轨道综合分析图